[[{"header":{"parameterUnit":"m.s-1","parameterCategory":1,"la1":30.2991,"la2":30.254,"lo1":-89.0895,"lo2":-89.0444,"dy":0.0017,"dx":0.0017,"nx":28,"ny":28,"refTime":"2023-10-23T21:00:00:Z","depth":0,"parameterNumber":2,"parameterNumberName":"U-component_of_WINDS"},"data":[0,0,0,0,0,0,0,0,0,0,0,0,0,0,0,0,0,0,0,0,0,0,0,0,0,0,0,0,0,0,0,0,0,0,0,0,0,0,0,0,0,0,0,0,0,0,0,0,0,0,0,0,0,0,0,0,0,0,-6.2394,-6.2396,0,-6.2531,-6.2533,-6.2534,-6.2468,-6.2464,-6.2461,-6.2457,-6.2595,-6.2602,-6.2609,0,0,0,0,0,0,0,0,0,0,0,0,0,-6.2074,-6.2081,-6.2394,-6.2396,-6.2398,-6.2531,-6.2533,-6.2535,-6.2468,-6.2464,-6.246,-6.2456,-6.2593,-6.2601,-6.2609,0,0,0,0,0,0,0,0,0,0,0,0,0,-6.2212,-6.2083,-6.2394,-6.2381,-6.2381,-6.2531,-6.2533,-6.2535,-6.2469,-6.2464,-6.2459,-6.2454,-6.259,-6.26,-6.2611,-6.2781,0,0,-6.2642,-6.2647,0,0,0,0,0,0,0,0,-6.2205,-6.2224,-6.2381,-6.2382,-6.2382,-6.2477,-6.2471,-6.2617,-6.2471,-6.2436,-6.2457,-6.2451,-6.256,-6.2573,-6.261,-6.2787,-6.2793,-6.2643,-6.265,-6.2654,-6.2657,0,0,0,0,0,0,0,-6.2195,-6.2218,-6.2448,-6.2383,-6.2384,-6.2368,-6.2381,-6.2498,-6.2526,-6.2438,-6.2434,-6.2451,-6.2559,-6.26,-6.2612,-6.2795,-6.2643,-6.2652,-6.2659,-6.2663,-6.312,-6.3125,0,0,0,0,0,0,-6.2186,-6.221,-6.2444,-6.2452,-6.2279,-6.2378,-6.2393,-6.2452,-6.2524,-6.253,-6.2455,-6.2447,-6.2585,-6.26,-6.2617,-6.282,-6.2654,-6.2664,-6.267,-6.3114,-6.3121,-6.3127,0,0,0,0,0,0,-6.218,-6.2208,-6.2438,-6.233,-6.2358,-6.2389,-6.2455,-6.2457,-6.2498,-6.2537,-6.2542,-6.2492,-6.2581,-6.2602,-6.2741,-6.2824,-6.2669,-6.2678,-6.3107,-6.3116,-6.3124,-6.3229,0,0,0,0,0,0,-6.2171,-6.2206,-6.227,-6.2332,-6.2365,-6.256,-6.2461,-6.2464,-6.2516,-6.2507,-6.2572,-6.2578,-6.2579,-6.2726,-6.2751,-6.2836,-6.2686,-6.3099,-6.3111,-6.3121,-6.3218,-6.324,-6.3259,0,0,0,0,0,-6.216,-6.2293,-6.2274,-6.2303,-6.2446,-6.2565,-6.2583,-6.2582,-6.2523,-6.2588,-6.2614,-6.2576,-6.2812,-6.274,-6.2769,-6.2857,-6.3094,-6.3108,-6.3121,-6.3208,-6.3235,-6.3258,0,0,0,0,0,0,-6.2238,-6.2301,-6.228,-6.2438,-6.2497,-6.2553,-6.2635,-6.261,-6.2686,-6.2674,-6.2669,-6.2684,-6.2827,-6.2857,-6.2776,-6.3027,-6.2944,-6.2964,-6.3001,-6.3027,-6.3047,-6.3036,-6.2695,0,0,0,0,0,-6.2275,-6.2367,-6.2416,-6.2551,-6.2582,-6.2604,-6.2656,-6.265,-6.271,-6.2734,-6.277,-6.2829,-6.2917,-6.2974,-6.3057,-6.3223,-6.3236,-6.3299,-6.3319,-6.3336,-6.3352,-6.3442,-6.347,-6.3171,-6.3171,-6.3171,0,0,-6.2349,-6.2395,-6.2453,-6.2568,-6.2613,-6.2708,-6.2625,-6.2728,-6.2798,-6.2749,-6.2882,-6.2911,-6.2977,-6.3131,-6.32,-6.3159,-6.3438,-6.3353,-6.3366,-6.3373,-6.3459,-6.3487,-6.3512,-6.318,-6.3178,-6.3177,0,0,-6.2533,-6.2578,-6.2695,-6.2743,-6.2812,-6.2827,-6.2856,-6.2917,-6.2935,-6.3069,-6.3034,-6.3118,-6.3269,-6.3318,-6.3362,-6.357,-6.3537,-6.3597,-6.3703,-6.3791,-6.3815,-6.3836,-6.3908,-6.3934,-6.3614,-6.3614,-6.3614,0,-6.2616,-6.2758,-6.2758,-6.2865,-6.2916,-6.288,-6.2998,-6.3044,-6.3137,-6.3173,-6.3128,-6.3318,-6.336,-6.3524,-6.3575,-6.3613,-6.3645,-6.3587,-6.3812,-6.3833,-6.3852,-6.3921,-6.3949,-6.3621,-6.362,-6.3619,-6.3619,0,-6.2857,-6.2956,-6.3043,-6.3135,-6.3197,-6.3309,-6.3326,-6.3389,-6.338,-6.3399,-6.3537,-6.3587,-6.3679,-6.3719,-6.371,-6.3883,-6.3855,-6.3812,-6.3727,-6.3887,-6.3952,-6.3978,-6.363,-6.3628,-6.3626,-6.3624,0,0,-6.3088,-6.3183,-6.3214,-6.3256,-6.3333,-6.3409,-6.3521,-6.3613,-6.3667,-6.3734,-6.3827,-6.3958,-6.3918,-6.3969,-6.3966,-6.4044,-6.4205,-6.3991,-6.3992,-6.4027,-6.4397,-6.4428,-6.4458,-6.4186,-6.4191,-6.4195,-6.4391,0,-6.3276,-6.3471,-6.3476,-6.3655,-6.3747,-6.3716,-6.3813,-6.3871,-6.3894,-6.3975,-6.4,-6.4092,-6.4034,-6.4064,-6.4141,-6.4169,-6.4278,-6.4155,-6.427,-6.4274,-6.4251,-6.4492,-6.4524,-6.4707,-6.4417,-6.4421,-6.4424,0,-6.3519,-6.3596,-6.3784,-6.3849,-6.3888,-6.3975,-6.4061,-6.414,-6.4206,-6.4217,-6.4276,-6.4263,-6.4377,-6.4293,-6.4451,-6.4367,-6.4415,-6.4437,-6.4444,-6.4451,-6.4356,-6.4504,-6.4765,-6.4791,-6.4464,-6.4461,-6.4458,0,-6.3667,-6.3817,-6.395,-6.3987,-6.4067,-6.4129,-6.4166,-6.4226,-6.4282,-6.4358,-6.4394,-6.4482,-6.4529,-6.4598,-6.4609,-6.4547,-6.4767,-6.4684,-6.4778,-6.4778,-6.4822,-6.4818,-6.5091,-6.4859,-6.4858,-6.4858,-6.4857,0,-6.3873,-6.3989,-6.4017,-6.4098,-6.4228,-6.4234,-6.4362,-6.4393,-6.4449,-6.4535,-6.4515,-6.4596,-6.4607,-6.4692,-6.4702,-6.483,-6.4853,-6.4864,-6.4865,-6.4864,-6.4862,-6.4892,-6.4879,-6.4865,-6.4864,-6.4862,-6.4861,0,-6.4057,-6.4081,-6.4223,-6.4289,-6.4309,-6.4401,-6.4457,-6.4535,-6.4558,-6.4668,-6.4694,-6.4729,-6.4828,-6.4847,-6.4964,-6.4971,-6.5123,-6.5113,-6.5101,-6.5099,-6.5191,-6.5181,-6.549,-6.553,-6.5274,-6.5277,-6.5279,0,-6.4185,-6.4274,-6.4351,-6.4408,-6.4448,-6.4541,-6.4598,-6.4609,-6.467,-6.4754,-6.4822,-6.4919,-6.4997,-6.5157,-6.5193,-6.5283,-6.5272,-6.5375,-6.5285,-6.5282,-6.5271,-6.5264,-6.5273,-6.539,-6.5393,-6.5395,-6.5397,0,-6.441,-6.4418,-6.4502,-6.4593,-6.4663,-6.4734,-6.4801,-6.4849,-6.4869,-6.4939,-6.5041,-6.5102,-6.5223,-6.5319,-6.541,-6.5447,-6.5426,-6.5426,-6.5452,-6.545,-6.5439,-6.5444,-6.5144,-6.5417,-6.5415,-6.5414,-6.5413,-6.5412,-6.4568,-6.4646,-6.4713,-6.4808,-6.4861,-6.4925,-6.5002,-6.5036,-6.5121,-6.522,-6.5223,-6.5334,-6.54,-6.552,-6.5563,-6.5651,-6.5618,-6.5656,-6.5665,-6.5674,-6.5681,-6.5429,-6.5668,-6.5667,-6.5666,-6.5666,-6.5666,0,-6.4789,-6.4832,-6.492,-6.5016,-6.5092,-6.5069,-6.5143,-6.5207,-6.5305,-6.537,-6.5448,-6.5566,-6.5661,-6.5706,-6.58,-6.5861,-6.5854,-6.5885,-6.5879,-6.5888,-6.5706,-6.5673,-6.589,-6.589,-6.589,-6.589,-6.589,-6.589,-6.4913,-6.5043,-6.5061,-6.5218,-6.5259,-6.5369,-6.5414,-6.5473,-6.5524,-6.5657,-6.5737,-6.5767,-6.5824,-6.5922,-6.6009,-6.6019,-6.6054,-6.6089,-6.6095,-6.5924,-6.5901,-6.5879,-6.5847,-6.6098,-6.6098,-6.627,-6.6271,-6.6272]},{"header":{"parameterUnit":"m.s-1","parameterCategory":1,"la1":30.2991,"la2":30.254,"lo1":-89.0895,"lo2":-89.0444,"dy":0.0017,"dx":0.0017,"nx":28,"ny":28,"refTime":"2023-10-23T21:00:00:Z","depth":0,"parameterNumber":3,"parameterNumberName":"V-component_of_WINDS"},"data":[0,0,0,0,0,0,0,0,0,0,0,0,0,0,0,0,0,0,0,0,0,0,0,0,0,0,0,0,0,0,0,0,0,0,0,0,0,0,0,0,0,0,0,0,0,0,0,0,0,0,0,0,0,0,0,0,0,0,2.5269,2.527,0,2.5413,2.5415,2.5417,2.5428,2.5427,2.5425,2.5423,2.5572,2.5578,2.5583,0,0,0,0,0,0,0,0,0,0,0,0,0,2.5006,2.5011,2.5269,2.527,2.5272,2.5413,2.5415,2.5417,2.5428,2.5426,2.5425,2.5423,2.557,2.5577,2.5583,0,0,0,0,0,0,0,0,0,0,0,0,0,2.5132,2.5012,2.5268,2.5295,2.5299,2.5413,2.5415,2.5418,2.5429,2.5426,2.5424,2.5422,2.5568,2.5576,2.5584,2.5682,0,0,2.5609,2.5613,0,0,0,0,0,0,0,0,2.5125,2.5142,2.5289,2.5293,2.5298,2.54,2.5377,2.5506,2.5429,2.5379,2.5423,2.5421,2.5517,2.5529,2.5562,2.5689,2.5695,2.561,2.5615,2.5618,2.5621,0,0,0,0,0,0,0,2.5116,2.5136,2.5326,2.5291,2.5297,2.5301,2.5316,2.5402,2.546,2.5384,2.5385,2.5402,2.5519,2.5554,2.5565,2.5697,2.561,2.5617,2.5622,2.5625,2.5916,2.5919,0,0,0,0,0,0,2.5102,2.5128,2.5321,2.533,2.5204,2.5307,2.5325,2.537,2.5459,2.547,2.5404,2.5402,2.5541,2.5556,2.557,2.5693,2.5618,2.5626,2.5631,2.5914,2.5917,2.592,0,0,0,0,0,0,2.5096,2.5119,2.5315,2.523,2.5255,2.5314,2.5365,2.5374,2.5409,2.5474,2.5485,2.5428,2.554,2.5559,2.5655,2.5698,2.563,2.5637,2.591,2.5915,2.5919,2.5937,0,0,0,0,0,0,2.5089,2.5117,2.5153,2.523,2.526,2.5396,2.5368,2.5378,2.5423,2.5421,2.55,2.5511,2.5539,2.5643,2.5663,2.5708,2.5643,2.5907,2.5912,2.5917,2.5933,2.5941,2.5949,0,0,0,0,0,2.5079,2.5152,2.5155,2.5178,2.5306,2.5399,2.5416,2.5447,2.5426,2.5464,2.5507,2.5508,2.569,2.5652,2.5675,2.5724,2.5904,2.5911,2.5917,2.5929,2.594,2.5949,0,0,0,0,0,0,2.5078,2.5163,2.5167,2.5267,2.5326,2.54,2.5449,2.5456,2.5522,2.5519,2.5555,2.5573,2.5668,2.5706,2.5662,2.5825,2.5795,2.5806,2.5797,2.5807,2.5815,2.5804,2.565,0,0,0,0,0,2.509,2.5157,2.5227,2.5309,2.5338,2.5389,2.543,2.545,2.5512,2.5537,2.5587,2.5648,2.5719,2.5765,2.5834,2.5939,2.5957,2.5984,2.5991,2.5998,2.6007,2.6068,2.6081,2.5941,2.5941,2.5941,0,0,2.5113,2.5168,2.5208,2.531,2.5358,2.5428,2.5409,2.5484,2.5537,2.5548,2.5643,2.5682,2.5753,2.5854,2.5901,2.5888,2.605,2.6006,2.601,2.6016,2.6076,2.6089,2.6101,2.5946,2.5945,2.5944,0,0,2.5193,2.5241,2.5315,2.5364,2.5437,2.5471,2.5489,2.5565,2.5591,2.5686,2.5697,2.5762,2.5883,2.5934,2.5976,2.608,2.6085,2.6102,2.6143,2.6202,2.6214,2.6224,2.6263,2.6276,2.6111,2.6111,2.6111,0,2.5214,2.5319,2.5352,2.5428,2.5473,2.5488,2.5565,2.5611,2.5704,2.5735,2.572,2.5875,2.5924,2.6039,2.6065,2.6097,2.6121,2.6093,2.6209,2.622,2.6229,2.6267,2.6281,2.6113,2.6113,2.6112,2.6112,0,2.5342,2.5416,2.5467,2.5557,2.5609,2.5684,2.573,2.5779,2.5795,2.5831,2.593,2.599,2.6073,2.6101,2.6117,2.622,2.621,2.6201,2.6172,2.6244,2.628,2.6295,2.6115,2.6115,2.6114,2.6114,0,0,2.5422,2.5532,2.555,2.5593,2.5677,2.5735,2.5813,2.5895,2.5937,2.6001,2.6068,2.6173,2.6167,2.6214,2.6237,2.6289,2.637,2.6274,2.6276,2.6291,2.649,2.6497,2.6513,2.6374,2.6377,2.638,2.6485,0,2.5512,2.565,2.5684,2.5803,2.5873,2.5891,2.5959,2.6019,2.6056,2.6122,2.6163,2.6237,2.6222,2.6251,2.6304,2.6349,2.6411,2.6342,2.6439,2.6442,2.6421,2.6531,2.6537,2.6634,2.6499,2.6501,2.6503,0,2.5635,2.5703,2.5829,2.5907,2.5938,2.5999,2.6078,2.614,2.621,2.6234,2.6289,2.6307,2.6391,2.6359,2.6476,2.6429,2.6471,2.65,2.6505,2.6515,2.6477,2.6545,2.6665,2.668,2.6525,2.6524,2.6522,0,2.5683,2.5806,2.5898,2.5934,2.6027,2.607,2.6111,2.6178,2.6227,2.6297,2.6329,2.6408,2.6451,2.6512,2.6552,2.6525,2.6668,2.6638,2.6691,2.669,2.672,2.6717,2.6848,2.6746,2.6746,2.6745,2.6745,0,2.578,2.5857,2.5922,2.5978,2.6066,2.6105,2.6192,2.6233,2.6294,2.636,2.638,2.6443,2.6491,2.6561,2.6593,2.6687,2.6706,2.6729,2.6736,2.6727,2.6725,2.6755,2.675,2.6749,2.6749,2.6748,2.6747,0,2.5847,2.5894,2.5996,2.6077,2.6099,2.616,2.623,2.6287,2.6326,2.641,2.6433,2.6494,2.6577,2.6624,2.6728,2.675,2.6855,2.6859,2.6832,2.6835,2.6886,2.6881,2.7042,2.7066,2.6947,2.6948,2.6949,0,2.5906,2.5966,2.6054,2.61,2.6142,2.6216,2.6266,2.6309,2.636,2.6447,2.6494,2.6579,2.6649,2.6782,2.6836,2.6917,2.6924,2.6975,2.6936,2.6926,2.6926,2.6923,2.693,2.6981,2.6982,2.6983,2.6984,0,2.6006,2.6027,2.6098,2.6179,2.6238,2.6304,2.6368,2.6405,2.6459,2.6517,2.6603,2.6657,2.6765,2.685,2.6936,2.698,2.6992,2.6996,2.7013,2.7004,2.6986,2.6999,2.6851,2.6992,2.6991,2.699,2.699,2.699,2.6072,2.6128,2.6199,2.6279,2.6333,2.6394,2.6452,2.6499,2.6572,2.6663,2.6685,2.6776,2.6848,2.6965,2.7012,2.7085,2.7075,2.7099,2.7106,2.7111,2.7114,2.6975,2.7101,2.71,2.71,2.71,2.71,0,2.6175,2.6223,2.6296,2.6387,2.645,2.6457,2.653,2.6583,2.6663,2.6729,2.6799,2.6899,2.6983,2.7045,2.7131,2.7178,2.7186,2.7199,2.7196,2.7207,2.7116,2.7094,2.7191,2.7191,2.7191,2.7191,2.7191,2.7191,2.6236,2.633,2.636,2.6483,2.6531,2.6621,2.6662,2.672,2.6773,2.6885,2.6955,2.6995,2.7061,2.7152,2.723,2.7247,2.7278,2.7291,2.7308,2.7222,2.7213,2.7203,2.7182,2.7297,2.7297,2.7393,2.7394,2.7394]}]]